Probability
65 100 100 100 100 100 100 100 100 100 100 100 100 100 100 100 100 100 100 100 100 100 100 100 97 97 94 87 94 94 94 97 97 97 94 94 81 81 87 94 90 87 90
81 100 100 100 100 100 100 100 100 100 100 100 100 100 100 100 100 100 100 100 100 100 97 100 100 97 97 90 90 90 94 97 97 97 94 87 90 90 94 87 87 97 100
90 100 100 100 100 100 100 100 100 100 100 100 100 100 100 100 100 100 100 100 100 100 94 97 100 100 94 94 94 94 97 97 97 94 90 87 90 94 97 94 94 100 100
97 100 100 100 100 100 100 100 100 100 100 100 100 100 100 100 100 100 100 100 100 97 94 97 94 94 97 87 97 97 97 97 94 94 65 68 81 94 94 94 94 94 97
100 100 100 100 100 100 100 100 100 100 100 100 100 100 100 100 100 100 100 100 100 100 97 94 87 87 87 84 87 90 94 90 90 61 55 68 94 94 94 94 94 94 94
100 100 100 100 100 100 100 100 100 100 100 100 100 100 100 100 100 100 100 100 100 97 97 97 90 87 90 90 94 94 90 94 61 39 55 74 94 94 94 90 94 94 90
100 100 100 100 100 100 100 100 100 100 100 100 100 100 100 100 100 100 100 100 100 94 94 87 84 84 81 84 90 90 90 84 13 42 65 81 90 97 94 90 94 94 94
100 100 100 100 100 100 100 100 100 100 100 100 100 100 100 100 100 100 100 100 97 87 90 87 84 84 84 81 81 87 87 81 58 52 68 87 100 97 97 97 94 94 94
100 100 100 100 100 100 100 100 100 100 100 100 100 100 100 100 100 97 97 94 90 84 84 84 84 81 84 87 84 84 87 87 23 52 65 87 100 100 97 94 97 97 94
100 100 100 100 100 100 100 100 100 100 100 100 100 97 97 97 97 94 97 90 84 84 81 74 74 71 77 74 84 87 90 74 26 42 81 90 100 100 87 87 87 97 94
100 100 100 100 100 100 100 100 100 100 100 100 100 97 97 87 94 94 94 90 81 77 71 68 71 71 77 68 68 90 77 23 32 55 71 97 100 100 87 81 90 90 97
100 100 100 94 100 100 100 100 100 100 97 97 97 97 71 58 74 84 90 87 77 71 65 61 61 65 42 26 61 74 19 35 45 52 71 94 100 97 87 87 94 90 90
97 94 94 97 97 97 94 94 90 87 87 87 84 68 42 29 45 42 55 58 45 48 29 42 32 23 13 13 10 0 26 32 42 55 77 94 97 94 90 87 90 87 81
87 90 87 97 97 87 87 90 84 87 77 74 65 45 29 23 23 23 26 26 19 10 13 16 10 10 10 3 3 3 13 26 32 55 68 90 94 90 87 81 84 81 77
74 81 81 87 90 81 84 84 77 77 71 61 45 35 23 23 19 16 16 16 16 6 6 3 0 3 3 3 3 6 13 19 29 45 65 81 94 90 87 81 74 74 84
65 71 74 81 74 74 71 71 71 61 42 39 35 35 23 10 6 13 13 6 3 0 3 3 0 0 3 3 3 10 13 16 26 29 52 68 87 94 87 84 68 74 77
42 58 74 81 65 55 52 45 45 39 32 26 29 26 19 6 6 6 6 0 0 0 0 3 0 3 0 0 3 3 10 16 16 26 45 52 74 81 87 94 84 74 71
35 39 45 55 42 29 26 29 29 29 19 19 19 16 16 6 3 3 0 0 0 0 0 3 0 0 0 0 0 0 3 10 16 23 39 52 55 58 74 90 84 77 68
29 39 35 29 23 19 23 23 16 10 13 10 6 10 6 6 3 3 0 0 0 0 0 3 0 0 0 0 0 0 0 3 10 19 29 29 42 48 55 58 71 74 58
23 19 16 19 19 13 16 13 10 3 6 10 10 6 6 0 3 0 0 0 0 0 0 0 0 0 0 0 0 0 0 0 0 3 6 16 16 19 23 32 58 58 58
19 19 16 19 10 10 13 10 10 6 3 3 6 6 6 0 0 0 0 0 0 0 0 0 0 0 0 0 0 0 0 0 0 0 0 0 3 3 10 13 10 16 23
23 16 13 10 10 13 10 6 6 6 3 3 6 10 6 0 0 0 0 0 0 0 0 0 0 0 0 0 0 0 0 0 0 0 0 0 0 0 3 3 6 6 6
19 16 16 10 10 10 3 3 3 3 0 0 0 0 3 0 0 0 0 0 0 0 0 0 0 0 0 0 0 0 0 0 0 0 0 0 0 0 0 3 3 3 3
19 16 6 10 10 10 0 3 3 3 6 6 3 3 3 6 3 3 0 0 0 0 0 0 0 0 0 0 0 0 0 0 0 0 0 0 0 0 0 0 0 3 3
16 16 13 10 10 6 0 3 3 3 3 3 0 3 3 3 3 3 3 0 0 0 0 0 0 0 0 0 0 0 0 0 0 0 0 0 0 0 0 0 0 0 0
16 13 19 16 10 3 6 3 3 3 0 0 0 3 3 0 0 3 3 0 0 0 0 0 0 0 0 0 0 0 0 0 0 0 0 0 0 0 0 0 0 0 0
Height
5873 5874 5875 5876 5877 5877 5878 5879 5880 5881 5882 5882 5883 5884 5885 5885 5886 5886 5886 5887 5887 5887 5887 5887 5887 5886 5887 5887 5887 5887 5887 5887 5887 5887 5887 5887 5887 5887 5888 5889 5889 5889 5890
5873 5874 5874 5875 5876 5877 5878 5879 5880 5881 5882 5883 5883 5884 5885 5886 5886 5887 5887 5887 5887 5887 5887 5887 5887 5887 5887 5887 5887 5887 5887 5887 5887 5887 5888 5888 5888 5888 5889 5889 5890 5890 5891
5874 5874 5874 5875 5876 5877 5878 5879 5880 5881 5882 5883 5884 5885 5886 5886 5887 5887 5887 5887 5888 5888 5887 5887 5887 5887 5887 5887 5887 5887 5887 5887 5887 5887 5888 5888 5889 5889 5890 5890 5890 5891 5891
5874 5874 5874 5875 5876 5876 5878 5879 5880 5880 5881 5883 5884 5885 5886 5886 5887 5887 5887 5888 5888 5888 5888 5887 5887 5887 5887 5887 5887 5887 5887 5887 5888 5888 5888 5889 5889 5889 5890 5891 5891 5891 5892
5874 5874 5874 5875 5875 5876 5877 5878 5879 5880 5881 5882 5883 5884 5885 5886 5887 5887 5888 5888 5888 5888 5888 5887 5887 5887 5887 5887 5887 5887 5887 5887 5888 5888 5888 5889 5889 5890 5890 5891 5892 5892 5893
5874 5874 5874 5875 5875 5876 5877 5878 5879 5880 5881 5882 5883 5884 5885 5886 5886 5887 5888 5888 5888 5888 5888 5888 5888 5887 5887 5887 5887 5887 5887 5887 5888 5888 5889 5889 5890 5890 5891 5891 5892 5893 5893
5875 5874 5874 5874 5875 5875 5876 5877 5878 5879 5880 5882 5883 5884 5885 5886 5886 5887 5888 5888 5888 5888 5888 5888 5888 5887 5887 5887 5887 5887 5887 5887 5888 5888 5888 5889 5890 5890 5891 5892 5892 5893 5894
5875 5874 5874 5874 5874 5875 5875 5876 5878 5879 5880 5881 5882 5883 5884 5885 5886 5887 5887 5888 5888 5888 5888 5887 5887 5887 5887 5887 5887 5887 5887 5887 5887 5888 5888 5889 5889 5890 5891 5891 5892 5893 5894
5874 5874 5874 5873 5874 5874 5874 5875 5877 5878 5879 5881 5882 5883 5884 5885 5886 5886 5887 5887 5888 5888 5887 5887 5887 5887 5887 5887 5887 5887 5887 5887 5887 5887 5888 5888 5889 5890 5891 5891 5892 5893 5894
5874 5873 5873 5872 5872 5873 5873 5874 5876 5877 5878 5880 5881 5883 5884 5885 5886 5886 5887 5887 5887 5887 5887 5887 5887 5887 5887 5887 5886 5886 5887 5887 5887 5887 5888 5888 5889 5890 5891 5891 5892 5893 5894
5872 5872 5871 5871 5871 5871 5872 5873 5874 5876 5877 5879 5880 5882 5883 5884 5885 5886 5886 5887 5887 5887 5887 5887 5886 5886 5886 5886 5886 5886 5887 5887 5887 5887 5887 5888 5889 5889 5890 5891 5892 5893 5894
5871 5870 5869 5869 5868 5869 5870 5871 5873 5874 5876 5878 5880 5881 5883 5884 5885 5885 5886 5887 5887 5887 5887 5887 5886 5886 5886 5886 5886 5886 5886 5887 5887 5887 5887 5888 5888 5889 5890 5891 5891 5892 5893
5869 5868 5867 5866 5866 5867 5868 5869 5871 5872 5874 5876 5878 5880 5882 5883 5884 5885 5886 5886 5887 5887 5887 5887 5886 5887 5887 5886 5886 5886 5886 5887 5887 5887 5887 5887 5888 5889 5889 5890 5891 5892 5892
5866 5865 5864 5864 5864 5864 5865 5867 5868 5870 5872 5874 5876 5879 5880 5882 5883 5884 5885 5886 5886 5887 5887 5887 5887 5887 5887 5886 5886 5886 5886 5886 5887 5887 5887 5887 5887 5888 5889 5890 5890 5891 5892
5863 5862 5862 5861 5861 5861 5862 5864 5866 5867 5870 5872 5875 5877 5879 5880 5882 5883 5884 5885 5886 5887 5887 5887 5887 5887 5887 5886 5886 5887 5887 5887 5887 5887 5887 5887 5887 5888 5889 5889 5890 5891 5891
5860 5859 5858 5858 5858 5859 5860 5861 5863 5865 5868 5870 5872 5875 5877 5879 5881 5882 5883 5884 5885 5886 5887 5887 5887 5887 5887 5887 5887 5887 5887 5887 5887 5887 5887 5887 5887 5888 5888 5889 5889 5890 5890
5857 5855 5855 5855 5855 5856 5858 5860 5861 5863 5865 5868 5870 5873 5875 5877 5879 5881 5883 5884 5885 5886 5887 5887 5887 5887 5887 5887 5887 5887 5887 5887 5887 5887 5887 5887 5887 5888 5888 5888 5889 5889 5890
5854 5853 5852 5852 5852 5853 5855 5857 5859 5861 5863 5866 5868 5871 5873 5876 5878 5880 5882 5883 5885 5886 5886 5887 5887 5887 5887 5887 5887 5887 5887 5888 5888 5887 5887 5888 5888 5888 5888 5888 5888 5889 5889
5852 5851 5849 5849 5850 5851 5853 5855 5857 5859 5861 5864 5866 5869 5872 5875 5877 5879 5881 5883 5884 5885 5886 5887 5887 5888 5888 5888 5887 5888 5888 5888 5888 5888 5888 5888 5888 5888 5888 5888 5888 5889 5889
5851 5849 5848 5848 5849 5850 5851 5853 5855 5857 5860 5863 5865 5868 5871 5873 5876 5878 5880 5882 5883 5885 5886 5887 5887 5887 5887 5887 5888 5888 5888 5888 5888 5889 5889 5889 5889 5889 5889 5889 5889 5889 5889
5850 5848 5847 5847 5847 5849 5850 5852 5853 5856 5858 5861 5864 5867 5869 5872 5874 5877 5879 5881 5883 5884 5885 5886 5887 5887 5887 5888 5888 5888 5888 5888 5889 5889 5889 5889 5889 5889 5889 5889 5889 5889 5889
5849 5847 5846 5845 5845 5847 5848 5850 5852 5854 5856 5859 5862 5865 5868 5871 5873 5875 5878 5880 5882 5883 5885 5886 5887 5887 5887 5888 5888 5888 5889 5889 5889 5889 5889 5890 5890 5890 5890 5889 5889 5889 5889
5848 5846 5844 5844 5844 5845 5847 5848 5850 5852 5855 5858 5861 5864 5867 5869 5871 5874 5877 5879 5881 5883 5884 5885 5886 5886 5887 5887 5888 5889 5889 5889 5889 5889 5889 5890 5890 5890 5890 5890 5889 5889 5889
5846 5844 5843 5842 5842 5843 5845 5846 5849 5851 5854 5856 5859 5862 5865 5867 5870 5873 5875 5877 5880 5881 5883 5884 5885 5886 5886 5887 5888 5888 5889 5889 5889 5889 5889 5889 5889 5890 5890 5889 5889 5889 5889
5846 5843 5842 5841 5841 5842 5844 5845 5847 5850 5852 5855 5857 5860 5863 5866 5869 5871 5873 5876 5878 5880 5881 5882 5884 5885 5885 5886 5887 5888 5888 5888 5889 5889 5889 5889 5889 5889 5889 5889 5889 5889 5889
5845 5843 5841 5840 5839 5840 5842 5843 5845 5848 5850 5852 5855 5858 5861 5864 5867 5869 5872 5874 5876 5878 5879 5881 5882 5883 5884 5885 5886 5887 5887 5888 5888 5888 5888 5888 5888 5889 5889 5888 5888 5888 5888
Wind_Speed
1 2 3 2 2 2 2 3 4 5 5 6 6 6 7 7 7 7 7 7 6 6 6 6 6 5 5 5 5 4 4 4 4 4 4 5 5 5 6 6 6 7 7
1 2 3 3 3 2 2 3 4 4 5 5 6 6 6 6 6 7 7 7 6 6 6 6 6 6 5 5 5 4 4 4 4 4 4 4 4 5 5 5 6 7 7
1 2 3 4 3 3 2 2 3 3 4 4 5 6 6 6 6 7 7 7 7 6 7 7 6 6 5 5 4 4 4 4 4 3 3 4 4 5 5 5 6 6 7
1 2 3 4 4 4 3 3 3 3 3 3 4 4 5 6 6 6 6 7 7 6 6 6 6 6 5 5 4 4 4 3 3 3 3 3 4 5 5 5 5 6 7
1 1 3 4 4 5 4 4 3 2 2 2 3 3 4 5 5 6 6 6 6 6 7 6 6 5 5 4 4 3 3 3 3 2 2 3 3 4 4 4 5 6 6
2 1 2 3 4 5 5 5 3 3 2 1 1 2 3 4 5 5 5 6 6 6 7 7 6 5 5 4 4 3 3 2 2 2 2 2 3 3 3 4 4 5 5
2 1 2 3 3 5 6 5 5 4 3 2 1 0 1 3 4 5 5 6 6 6 7 6 6 5 4 4 3 3 3 2 1 1 2 2 2 2 3 3 3 4 5
4 2 2 3 4 5 5 6 6 5 5 4 3 2 1 2 3 4 5 5 6 6 6 6 6 5 4 3 3 3 2 2 1 1 1 2 2 2 2 3 3 4 4
5 4 4 5 5 6 6 7 7 7 6 5 4 3 2 2 3 4 4 5 5 5 5 6 5 4 4 3 3 2 2 1 1 1 1 2 3 3 2 3 3 4 4
7 6 6 6 6 6 7 7 8 8 7 6 5 4 3 2 2 3 4 4 5 5 5 5 4 4 3 3 3 2 2 1 0 0 1 2 3 3 3 3 3 4 4
9 8 7 7 6 6 7 8 9 8 8 7 6 5 4 3 2 3 3 4 4 4 4 4 4 4 3 3 2 2 1 1 1 1 1 2 3 3 3 3 4 4 5
10 9 8 8 7 7 8 9 9 10 9 8 8 7 5 4 3 3 3 3 3 4 4 4 3 3 3 3 2 2 1 1 0 1 2 2 3 4 4 4 4 5 5
11 11 9 9 8 8 9 9 10 11 11 11 10 8 7 5 4 3 3 3 3 3 3 3 3 3 3 3 2 2 1 1 0 0 1 2 3 4 4 4 4 5 6
14 11 10 10 10 9 10 10 10 12 12 12 12 10 8 6 5 4 3 2 2 3 3 2 2 3 3 2 2 1 1 1 0 0 1 2 3 4 4 4 4 5 6
15 12 11 12 10 10 10 11 12 13 13 13 13 11 9 8 6 5 3 3 2 2 2 1 2 2 2 2 2 2 1 1 0 0 0 1 2 3 4 5 5 5 6
16 13 11 10 9 10 11 11 11 12 14 13 13 13 11 9 7 5 4 4 2 1 1 0 1 1 2 2 2 2 2 1 1 1 0 1 2 3 3 4 5 5 6
15 12 11 10 9 9 11 11 11 12 12 13 13 13 11 10 8 7 5 5 3 2 1 0 0 1 1 2 2 2 2 1 1 1 1 1 1 2 2 3 4 5 6
13 12 12 8 7 8 10 11 10 11 12 13 13 12 11 10 9 8 7 6 5 3 2 1 0 1 2 2 2 2 2 2 2 2 2 2 1 1 1 2 3 3 5
14 12 10 6 5 7 9 10 11 12 13 14 13 13 12 11 10 9 8 7 6 4 3 2 0 0 1 2 2 1 2 2 2 2 2 2 2 1 0 1 1 2 3
14 11 9 6 5 6 8 10 11 12 13 14 14 14 13 12 10 10 9 8 7 5 4 2 1 1 0 1 1 1 2 2 2 2 2 2 2 2 1 1 1 1 2
13 10 8 6 5 6 7 10 11 13 14 14 15 15 14 13 12 11 10 9 8 7 5 4 3 2 1 1 1 1 2 2 2 2 2 2 2 2 2 2 1 1 2
12 10 7 5 5 6 8 10 12 13 14 15 15 15 15 14 13 12 11 11 10 8 6 5 4 3 2 2 1 1 1 1 1 1 1 1 1 2 2 2 2 2 1
11 9 7 5 5 7 8 10 11 13 15 15 14 16 16 15 14 14 13 11 10 9 8 6 5 4 3 3 3 2 1 1 1 1 0 0 1 1 2 2 2 2 2
10 9 7 4 5 7 9 11 12 13 15 15 16 16 16 15 15 14 14 12 11 10 9 8 7 6 5 4 4 3 2 2 1 1 1 1 1 1 2 2 2 3 3
9 8 6 4 5 7 10 11 13 14 16 16 16 16 16 16 15 15 14 13 12 11 10 9 9 7 7 6 6 5 4 3 2 2 2 2 2 2 3 3 3 4 4
9 8 6 5 4 7 9 12 13 14 16 16 16 16 16 16 16 15 15 14 13 12 12 11 10 9 9 8 8 7 6 5 5 4 4 4 4 4 5 5 6 6 6
Wind_Direction
143 189 200 209 202 170 130 112 104 90 79 67 55 47 39 33 30 28 28 26 28 30 32 35 36 38 38 40 43 46 49 54 55 73 84 89 92 96 94 91 96 100 106
140 182 201 204 202 186 156 124 110 95 82 69 56 46 38 32 29 28 27 27 27 26 27 30 29 30 31 33 38 41 45 51 58 77 84 93 97 98 99 101 105 108 110
96 189 194 195 194 190 172 151 127 103 88 76 62 46 35 28 26 26 25 26 26 24 22 22 22 23 24 29 33 36 44 51 60 78 81 92 98 101 108 106 108 113 115
36 198 197 199 200 197 188 177 151 121 99 84 67 49 35 26 22 23 22 23 23 19 16 15 16 18 20 23 26 31 42 49 60 74 76 86 101 104 109 112 113 116 119
31 208 200 203 203 203 198 190 179 159 128 105 80 55 37 26 19 18 16 19 17 14 11 11 12 13 14 18 23 26 31 42 55 71 80 89 104 108 111 116 118 122 124
4 245 215 211 210 211 207 202 197 187 173 147 102 56 33 18 11 13 11 9 6 6 6 6 6 6 10 15 17 19 21 35 54 80 87 96 111 113 118 123 127 132 132
349 293 231 224 223 220 219 220 218 212 204 197 185 98 13 7 6 6 2 359 356 359 360 360 3 7 15 15 9 5 7 16 43 91 112 117 127 130 138 144 141 145 141
339 307 261 245 238 234 229 227 228 226 220 214 217 223 284 334 344 349 354 354 354 355 355 357 1 6 10 10 7 1 360 1 4 117 127 136 144 149 149 156 155 153 150
326 308 288 273 257 243 234 232 232 230 226 225 226 227 247 301 332 346 347 347 350 352 351 353 359 6 9 9 8 2 358 354 351 156 139 159 167 172 168 169 171 167 164
326 304 288 280 268 249 235 230 231 230 226 227 227 228 239 273 311 333 336 340 345 348 349 351 356 360 3 6 4 358 2 1 304 244 173 172 175 182 185 188 189 182 180
327 308 290 280 265 248 236 231 228 226 226 228 227 226 231 251 283 310 322 331 342 347 348 350 353 353 354 358 359 356 2 7 332 236 188 181 185 185 189 200 205 205 201
326 320 297 285 267 253 241 233 229 226 225 225 223 220 224 237 258 284 306 318 332 342 346 344 348 354 354 354 355 358 358 29 65 152 210 211 197 197 202 207 211 214 212
323 315 305 289 276 259 246 236 232 228 226 223 220 218 218 226 238 259 290 309 325 333 337 339 344 351 354 360 356 359 27 49 43 212 223 212 205 206 207 210 214 215 213
320 311 307 293 279 260 242 235 235 227 221 219 219 218 215 221 227 240 265 291 306 318 322 323 337 354 6 15 11 6 19 43 6 310 241 218 213 213 213 217 221 219 214
324 312 296 290 276 255 236 229 229 223 219 216 216 217 215 218 223 229 246 261 284 306 315 319 348 15 26 27 24 26 40 50 69 12 241 206 210 216 220 223 225 223 219
321 313 298 282 268 249 233 221 219 220 221 221 220 218 215 217 219 219 233 241 251 267 300 2 4 24 24 16 23 33 49 51 43 32 348 209 208 216 225 228 227 225 225
317 309 300 286 268 246 226 216 212 213 220 218 213 213 214 214 215 213 221 226 225 227 226 200 59 45 29 32 39 45 59 65 57 54 65 118 180 207 220 231 234 232 227
318 312 297 282 268 244 222 215 217 209 210 208 204 206 207 205 205 209 216 214 209 206 205 195 72 36 30 51 63 65 77 86 82 77 81 88 111 183 223 239 237 236 229
323 312 292 276 253 229 214 216 213 207 208 206 202 200 200 202 204 208 206 206 203 202 205 211 253 316 28 64 75 84 99 103 99 95 91 82 75 69 354 273 251 242 228
327 314 296 288 250 221 219 216 213 209 208 205 202 199 199 202 204 207 206 204 201 202 206 216 232 238 222 107 100 104 105 107 105 105 101 84 70 53 44 21 331 267 244
326 317 310 293 254 226 217 216 211 208 206 202 200 199 201 202 203 205 205 201 201 204 209 214 226 224 211 175 141 129 128 123 107 111 106 92 66 49 34 20 6 314 273
327 320 312 304 263 219 212 211 211 209 204 202 203 200 200 202 202 203 203 201 203 207 210 214 222 214 209 206 189 158 149 143 123 125 110 87 45 28 25 15 12 4 328
325 322 313 289 248 230 217 211 210 208 202 201 200 201 202 202 203 205 203 203 207 210 213 217 220 218 220 214 209 201 188 181 171 166 178 285 326 344 356 0 349 341 330
324 321 321 298 245 225 214 205 203 200 196 196 199 202 203 203 205 206 205 207 210 214 218 221 223 226 225 218 213 214 215 210 202 198 216 268 298 323 331 333 329 324 316
324 322 316 298 244 222 215 204 203 201 200 199 201 203 205 205 208 209 210 213 216 219 222 224 226 232 230 226 224 227 228 232 244 248 248 262 275 289 296 302 305 308 308
325 326 319 305 253 227 220 212 207 206 204 203 202 205 206 207 209 212 214 217 221 224 226 227 229 232 233 232 233 235 236 237 246 253 261 269 274 279 285 290 291 294 295